Location: Palomar Mountain Lodge
(33.3110°N, 116.8495°W)
Time: 18:53:11
(UTC-07:00)

H-2A R/B - Pass Details

Date: 14 June 2018
Orbit: 735 x 836 km, 98.3° (Epoch: 17 June)

Event Time Altitude Azimuth Distance (km) Brightness Sun altitude
Exits shadow 20:38:42 - 110° (ESE) 2,432 4.0 -8.0°
Reaches altitude 10° 20:39:05 10° 107° (ESE) 2,332 3.9 -8.1°
Maximum altitude 20:42:26 18° 66° (ENE) 1,876 3.7 -8.7°
Drops below altitude 10° 20:45:50 10° 25° (NNE) 2,383 4.7 -9.2°
Sets 20:48:55 0° 7° (N) 3,337 5.7 -9.8°
